SCP
0 -0 -0 -0 0 0 0 0 -0 0 -0 0 -0 -0 -0 -0 -0 0 -0 0 -0 -0 -0 -0 -0 -0 -0 0 0 0 0 0
0 0 -0 -0 -0 0 0 0 0 -0 -0 -0 -0 -0 -0 -0 -0 0 0 -0 -0 -0 -0 -0 -0 -0 0 -0 0 0 0 0
0 0 0 -0 -0 0 -0 -0 -0 -0 -0 -0 -0 -0 -0 -0 0 0 -0 -0 0 -0 -0 -0 -0 0 0 0 0 0 0 0
0 -0 -0 -0 0 0 -0 0 -0 -0 -0 -0 0 0 -0 -0 -0 -0 0 -0 -0 0 0 0 0 0 0 0 0 0 0 0
0 0 0 -0 -0 0 -0 -0 -0 -0 -0 -0 0 -0 -0 -0 -0 -0 0 -0 -0 -0 0 0 0 0 0 0 0 0 0 0
0 0 0 0 0 -0 -0 -0 -0 -0 -0 -0 0 0 0 -0 -0 0 0 0 0 -0 0 0 0 0 0 0 0 0 0 0
-0 -0 0 0 0 -0 -0 -0 -0 -0 -0 -0 -0 0 0 0 0 0 0 0 0 0 0 0 0 0 0 0 0 0 0 0
0 -0 -0 -0 -0 -0 0 -0 -0 -0 -0 0 -0 -0 -0 0 0 0 0 0 0 0 0 0 0 0 0 0 0 0 0 0
0 0 -0 0 -0 0 -0 -0 -0 -0 -0 -0 -0 -0 -0 0 -0 0 0 0 0 0 0 0 0 0 0 0 0 0 0 0
-0 0 -0 0 0 0 0 -0 -0 -0 0 0 -0 0 0 0 0 0 0 0 0 0 0 0 0 0 0 0 0 0 0 0
-0 0 0 0 0 0 0 -0 -0 -0 -0 0 0 0 0 0 0 0 0 0 0 0 0 0 0 0 0 0 0 0 0 0
0 0 0 -0 0 0 0 -0 -0 0 0 0 0 0 0 0 0 0 0 0 0 0 0 0 0 0 0 0 0 0 0 0
0 0 0 -0 0 -0 -0 -0 0 0 0 0 0 0 0 0 0 0 0 0 0 0 0 0 0 0 0 0 0 0 0 0
0 0 0 -0 -0 -0 -0 -0 0 0 0 0 0 0 0 0 0 0 0 0 0 0 0 0 0 0 0 0 0 0 0 0
0 0 0 -0 0 -0 0 0 0 0 0 0 0 0 0 0 0 0 0 0 0 0 0 0 0 0 0 0 0 0 0 0
0 -0 -0 0 -0 0 -0 0 0 0 0 0 0 0 0 0 0 0 0 0 0 0 0 0 0 0 0 0 0 0 0 0
0 -0 -0 -0 0 0 -0 0 0 0 0 0 0 0 0 0 0 0 0 0 0 0 0 0 0 0 0 0 0 0 0 0
0 0 0 0 -0 0 0 -0 0 0 0 0 0 0 0 0 0 0 0 0 0 0 0 0 0 0 0 0 0 0 0 0
-0 -0 0 0 -0 0 0 0 0 0 0 0 0 0 0 0 0 0 0 0 0 0 0 0 0 0 0 0 0 0 0 0
-0 0 0 -0 0 0 1 1 0 0 0 0 0 0 0 0 0 0 0 0 0 0 0 0 0 0 0 0 0 0 0 0
Wind_Speed_500mb
9 9 4 10 12 32 35 43 11 16 35 21 37 36 37 43 37 39 35 31 32 31 30 30 28 27 27 25 22 18 14 12
11 13 17 15 10 36 35 27 35 41 24 43 36 34 42 55 33 38 41 33 34 32 33 34 33 32 31 27 24 19 15 10
4 16 5 13 35 48 32 37 53 46 29 45 40 42 51 39 25 27 43 43 41 39 41 43 41 38 36 34 32 27 23 20
11 41 19 16 40 46 29 46 54 62 49 39 32 42 43 18 21 29 46 48 44 37 35 38 36 34 34 31 29 25 22 18
21 16 35 17 61 47 30 39 37 52 27 35 39 36 31 42 37 36 43 43 40 34 28 24 30 32 32 32 32 30 22 12
9 13 15 24 26 36 43 35 63 47 15 33 42 41 37 57 49 36 37 32 30 28 29 23 29 32 33 36 35 30 23 17
13 17 25 52 30 57 48 53 30 35 64 56 51 46 39 39 52 54 44 38 34 34 30 27 27 24 21 26 31 43 46 41
3 33 36 51 52 39 27 44 51 59 56 54 47 55 48 40 49 40 30 23 20 23 23 16 14 9 19 19 33 36 46 46
29 49 56 36 43 28 48 23 49 54 52 55 54 57 43 54 48 35 18 21 18 18 19 11 5 14 24 28 28 37 42 45
36 45 61 29 34 18 36 40 53 49 51 58 56 48 52 55 48 43 35 27 9 4 7 14 24 27 30 33 28 28 32 45
43 47 50 54 39 25 41 48 47 47 39 47 57 51 52 50 42 39 27 11 4 9 17 20 26 23 22 25 27 25 35 41
45 31 57 43 36 29 41 48 46 43 40 54 58 55 52 51 48 40 33 21 9 8 13 18 22 18 20 19 18 26 35 37
31 31 15 41 16 20 47 46 44 44 53 51 45 37 34 29 28 24 23 28 25 7 10 20 21 15 15 19 23 29 34 39
12 23 17 27 14 29 50 50 48 44 52 48 40 39 36 29 22 17 16 24 15 5 8 17 21 14 11 18 16 25 35 38
19 9 16 6 7 29 52 53 51 49 55 52 52 50 45 38 37 33 22 12 7 9 13 16 17 6 9 13 15 19 26 35
11 21 10 30 32 14 53 54 56 59 60 59 63 52 49 44 44 37 27 17 7 10 13 16 14 1 2 14 15 18 30 43
15 27 3 24 40 23 57 47 50 58 65 66 68 60 60 53 43 31 21 13 9 9 15 14 14 10 14 14 11 20 32 39
30 26 24 42 41 28 52 65 61 63 66 68 74 67 60 51 38 23 15 7 7 11 17 9 11 16 15 5 4 18 28 34
24 36 25 11 31 34 47 39 37 50 61 85 91 78 65 51 35 21 13 5 7 14 15 8 7 15 19 6 10 19 23 30
24 13 19 38 13 6 39 33 27 44 67 75 74 74 64 52 40 29 18 7 6 15 14 12 12 8 6 2 15 25 28 33
Wind_Direction_500mb
74 111 256 239 217 106 112 106 271 66 55 71 86 93 119 122 110 77 61 72 79 78 73 71 68 64 60 59 56 54 48 39
123 164 237 209 216 127 121 120 130 109 62 78 114 101 117 131 104 63 66 71 75 76 76 73 70 67 64 61 57 52 49 34
236 207 157 205 134 107 108 110 100 103 101 95 107 113 113 129 80 66 73 78 80 81 81 77 70 64 59 55 55 56 55 51
334 296 127 178 113 107 138 117 113 107 109 109 112 110 111 128 119 91 81 82 80 75 71 64 57 53 49 47 43 38 40 48
254 270 130 161 127 143 142 134 118 122 108 124 132 116 112 132 112 95 85 85 78 67 59 47 41 40 31 33 35 35 33 24
215 186 120 121 103 121 128 125 133 123 135 139 131 135 122 106 114 121 102 89 93 91 80 63 43 36 14 6 1 359 1 351
236 141 120 105 97 79 86 82 109 112 138 144 149 150 152 140 119 107 107 94 83 74 52 35 46 42 24 347 341 340 339 341
338 123 126 128 111 110 102 96 99 114 138 148 148 150 149 133 133 129 125 122 121 110 109 87 70 29 335 345 340 336 334 335
312 126 121 121 117 125 124 135 141 142 154 154 158 162 148 139 144 151 131 127 138 130 114 93 29 338 348 348 349 331 332 332
124 122 118 123 136 98 144 156 150 154 167 167 163 162 150 141 127 121 122 129 156 74 53 15 357 356 352 346 345 334 322 319
115 103 107 121 115 119 121 138 148 163 170 161 160 149 136 131 128 128 125 132 26 10 357 355 1 9 354 342 338 320 314 323
115 112 108 108 122 127 139 143 150 158 159 140 133 130 127 130 127 128 122 95 84 340 346 359 15 22 352 335 342 318 316 324
38 23 118 130 131 146 148 152 161 175 146 139 136 139 141 145 143 145 145 129 104 95 0 1 9 13 342 339 330 317 317 322
319 45 355 2 192 154 161 163 176 170 149 146 144 150 149 140 139 133 167 183 210 273 2 359 2 12 341 324 322 307 321 327
339 316 19 78 239 176 173 174 178 172 158 158 157 156 157 160 164 162 178 226 289 7 3 354 352 30 345 351 321 326 323 325
315 266 306 274 250 219 185 185 180 178 167 166 159 157 159 168 180 195 199 223 268 354 357 343 345 260 142 17 344 330 335 344
184 255 331 242 246 245 195 199 185 180 175 170 165 164 164 171 184 192 201 227 303 355 6 345 8 55 83 47 344 331 344 355
170 200 189 259 244 221 194 204 190 183 180 170 159 163 165 174 184 200 203 234 347 12 16 29 21 79 83 120 1 341 338 0
179 207 209 320 258 208 199 198 209 193 184 168 167 166 167 173 181 185 185 275 16 13 23 42 17 119 137 196 277 317 17 26
260 155 205 207 260 253 169 179 203 228 168 162 162 170 170 176 174 176 187 246 39 21 3 47 31 65 138 333 5 24 22 19
Wind_Speed_850mb
9 9 4 10 12 32 35 43 11 16 35 21 37 36 37 43 37 39 35 31 32 31 30 30 28 27 27 25 22 18 14 12
11 13 17 15 10 36 35 27 35 41 24 43 36 34 42 55 33 38 41 33 34 32 33 34 33 32 31 27 24 19 15 10
4 16 5 13 35 48 32 37 53 46 29 45 40 42 51 39 25 27 43 43 41 39 41 43 41 38 36 34 32 27 23 20
11 41 19 16 40 46 29 46 54 62 49 39 32 42 43 18 21 29 46 48 44 37 35 38 36 34 34 31 29 25 22 18
21 16 35 17 61 47 30 39 37 52 27 35 39 36 31 42 37 36 43 43 40 34 28 24 30 32 32 32 32 30 22 12
9 13 15 24 26 36 43 35 63 47 15 33 42 41 37 57 49 36 37 32 30 28 29 23 29 32 33 36 35 30 23 17
13 17 25 52 30 57 48 53 30 35 64 56 51 46 39 39 52 54 44 38 34 34 30 27 27 24 21 26 31 43 46 41
3 33 36 51 52 39 27 44 51 59 56 54 47 55 48 40 49 40 30 23 20 23 23 16 14 9 19 19 33 36 46 46
29 49 56 36 43 28 48 23 49 54 52 55 54 57 43 54 48 35 18 21 18 18 19 11 5 14 24 28 28 37 42 45
36 45 61 29 34 18 36 40 53 49 51 58 56 48 52 55 48 43 35 27 9 4 7 14 24 27 30 33 28 28 32 45
43 47 50 54 39 25 41 48 47 47 39 47 57 51 52 50 42 39 27 11 4 9 17 20 26 23 22 25 27 25 35 41
45 31 57 43 36 29 41 48 46 43 40 54 58 55 52 51 48 40 33 21 9 8 13 18 22 18 20 19 18 26 35 37
31 31 15 41 16 20 47 46 44 44 53 51 45 37 34 29 28 24 23 28 25 7 10 20 21 15 15 19 23 29 34 39
12 23 17 27 14 29 50 50 48 44 52 48 40 39 36 29 22 17 16 24 15 5 8 17 21 14 11 18 16 25 35 38
19 9 16 6 7 29 52 53 51 49 55 52 52 50 45 38 37 33 22 12 7 9 13 16 17 6 9 13 15 19 26 35
11 21 10 30 32 14 53 54 56 59 60 59 63 52 49 44 44 37 27 17 7 10 13 16 14 1 2 14 15 18 30 43
15 27 3 24 40 23 57 47 50 58 65 66 68 60 60 53 43 31 21 13 9 9 15 14 14 10 14 14 11 20 32 39
30 26 24 42 41 28 52 65 61 63 66 68 74 67 60 51 38 23 15 7 7 11 17 9 11 16 15 5 4 18 28 34
24 36 25 11 31 34 47 39 37 50 61 85 91 78 65 51 35 21 13 5 7 14 15 8 7 15 19 6 10 19 23 30
24 13 19 38 13 6 39 33 27 44 67 75 74 74 64 52 40 29 18 7 6 15 14 12 12 8 6 2 15 25 28 33
Wind_Direction_850mb
74 111 256 239 217 106 112 106 271 66 55 71 86 93 119 122 110 77 61 72 79 78 73 71 68 64 60 59 56 54 48 39
123 164 237 209 216 127 121 120 130 109 62 78 114 101 117 131 104 63 66 71 75 76 76 73 70 67 64 61 57 52 49 34
236 207 157 205 134 107 108 110 100 103 101 95 107 113 113 129 80 66 73 78 80 81 81 77 70 64 59 55 55 56 55 51
334 296 127 178 113 107 138 117 113 107 109 109 112 110 111 128 119 91 81 82 80 75 71 64 57 53 49 47 43 38 40 48
254 270 130 161 127 143 142 134 118 122 108 124 132 116 112 132 112 95 85 85 78 67 59 47 41 40 31 33 35 35 33 24
215 186 120 121 103 121 128 125 133 123 135 139 131 135 122 106 114 121 102 89 93 91 80 63 43 36 14 6 1 359 1 351
236 141 120 105 97 79 86 82 109 112 138 144 149 150 152 140 119 107 107 94 83 74 52 35 46 42 24 347 341 340 339 341
338 123 126 128 111 110 102 96 99 114 138 148 148 150 149 133 133 129 125 122 121 110 109 87 70 29 335 345 340 336 334 335
312 126 121 121 117 125 124 135 141 142 154 154 158 162 148 139 144 151 131 127 138 130 114 93 29 338 348 348 349 331 332 332
124 122 118 123 136 98 144 156 150 154 167 167 163 162 150 141 127 121 122 129 156 74 53 15 357 356 352 346 345 334 322 319
115 103 107 121 115 119 121 138 148 163 170 161 160 149 136 131 128 128 125 132 26 10 357 355 1 9 354 342 338 320 314 323
115 112 108 108 122 127 139 143 150 158 159 140 133 130 127 130 127 128 122 95 84 340 346 359 15 22 352 335 342 318 316 324
38 23 118 130 131 146 148 152 161 175 146 139 136 139 141 145 143 145 145 129 104 95 0 1 9 13 342 339 330 317 317 322
319 45 355 2 192 154 161 163 176 170 149 146 144 150 149 140 139 133 167 183 210 273 2 359 2 12 341 324 322 307 321 327
339 316 19 78 239 176 173 174 178 172 158 158 157 156 157 160 164 162 178 226 289 7 3 354 352 30 345 351 321 326 323 325
315 266 306 274 250 219 185 185 180 178 167 166 159 157 159 168 180 195 199 223 268 354 357 343 345 260 142 17 344 330 335 344
184 255 331 242 246 245 195 199 185 180 175 170 165 164 164 171 184 192 201 227 303 355 6 345 8 55 83 47 344 331 344 355
170 200 189 259 244 221 194 204 190 183 180 170 159 163 165 174 184 200 203 234 347 12 16 29 21 79 83 120 1 341 338 0
179 207 209 320 258 208 199 198 209 193 184 168 167 166 167 173 181 185 185 275 16 13 23 42 17 119 137 196 277 317 17 26
260 155 205 207 260 253 169 179 203 228 168 162 162 170 170 176 174 176 187 246 39 21 3 47 31 65 138 333 5 24 22 19